Voltar ao catálogo

NANOFF B

AtivoCiênciaSSO
NORAD 58755·PAYLOAD·🇩🇪 Germany

Lançado Dec 1, 2023 de Vandenberg Space Force Base

Loading…

Próximas Passagens (próximas 24 horas)

TLE

AtualizadoSource: Space-Track

Época: Sep 14, 2026, 15:10 UTC

1 58755U 23185S   26257.63199721  .00002271  00000-0  13297-3 0  9996
2 58755  97.5178 323.8355 0012172   4.7983 355.3362 15.12779688147397

Acompanhe NANOFF B em tempo real com AllMySat

Download on the App Store